N839BA KBFI-EGHI

Flight info

Callsign N839BA
Flight time N/A
Altitude 33000
Route ALPSE DCT YXC DCT SIGPA DCT FUDGY DCT 58N100W/N0465F350 DCT YYQ DCT RONPU DCT IKMAN/M080F370 DCT KETLA DCT 62N050W 61N040W 60N030W 58N020W DCT SUNOT/N0460F370 DCT BEGID DCT NIBOG DCT ERNAN DCT DEXEN UY124 AMPIT L15 KEPAD L151 PEPUL Y322 BUGUP
Aircraft B737/M-SDE2E3FGHIRWXY/LB1

Departure

Time 2026-05-07 03:01
Airport King County International Airport - Boeing Field (KBFI)

Arrival

Time N/A
Airport Southampton Airport (EGHI)
Time Latitude Longitude Altitude Speed Heading
2026-05-07 02:30 47.53514 -122.30246 27 ft 0 kts 60°
2026-05-07 02:43 47.53504 -122.30273 27 ft 4 kts 60°
2026-05-07 02:43 47.53491 -122.30307 27 ft 4 kts 56°
2026-05-07 02:43 47.53473 -122.30335 27 ft 4 kts 16°
2026-05-07 02:43 47.53463 -122.30335 26 ft 1 kts 330°
2026-05-07 02:49 47.53469 -122.30340 26 ft 3 kts 330°
2026-05-07 02:49 47.53501 -122.30367 26 ft 7 kts 330°
2026-05-07 02:49 47.53550 -122.30408 27 ft 9 kts 332°
2026-05-07 02:49 47.53601 -122.30466 26 ft 9 kts 321°
2026-05-07 02:50 47.53624 -122.30490 26 ft 4 kts 326°
2026-05-07 02:50 47.53645 -122.30521 26 ft 5 kts 320°
2026-05-07 02:50 47.53672 -122.30546 26 ft 5 kts 329°
2026-05-07 02:50 47.53674 -122.30548 26 ft 0 kts 329°
2026-05-07 02:52 47.53678 -122.30552 26 ft 2 kts 330°
2026-05-07 02:52 47.53686 -122.30559 26 ft 3 kts 329°
2026-05-07 02:53 47.53689 -122.30561 26 ft 4 kts 328°
2026-05-07 02:53 47.53719 -122.30588 27 ft 6 kts 328°
2026-05-07 02:53 47.53734 -122.30601 27 ft 0 kts 330°
2026-05-07 02:54 47.53735 -122.30602 27 ft 1 kts 330°
2026-05-07 02:54 47.53752 -122.30616 27 ft 5 kts 330°
2026-05-07 02:54 47.53794 -122.30651 27 ft 9 kts 330°
2026-05-07 02:54 47.53857 -122.30705 27 ft 12 kts 330°
2026-05-07 02:55 47.53939 -122.30773 27 ft 14 kts 331°
2026-05-07 02:55 47.54020 -122.30839 27 ft 13 kts 331°
2026-05-07 02:55 47.54092 -122.30918 27 ft 13 kts 319°
2026-05-07 02:55 47.54102 -122.30989 26 ft 7 kts 242°
2026-05-07 02:56 47.54100 -122.30994 26 ft 7 kts 241°
2026-05-07 02:56 47.54078 -122.31047 26 ft 7 kts 239°
2026-05-07 02:56 47.54054 -122.31110 29 ft 7 kts 240°
2026-05-07 02:56 47.54036 -122.31118 26 ft 0 kts 149°
2026-05-07 03:00 47.53940 -122.31036 31 ft 48 kts 150°
2026-05-07 03:00 47.53444 -122.30615 23 ft 115 kts 150°
2026-05-07 03:01 47.52584 -122.29887 23 ft 168 kts 149°
2026-05-07 03:01 47.51441 -122.28917 204 ft 202 kts 150°
2026-05-07 03:01 47.50217 -122.27916 1043 ft 199 kts 151°
2026-05-07 03:01 47.49011 -122.26932 1951 ft 193 kts 151°
2026-05-07 03:02 47.47771 -122.25879 2254 ft 216 kts 151°
2026-05-07 03:02 47.46423 -122.24732 2453 ft 231 kts 151°
2026-05-07 03:02 47.44985 -122.23509 2676 ft 248 kts 150°
2026-05-07 03:02 47.43440 -122.22200 3044 ft 260 kts 150°
2026-05-07 03:03 47.41864 -122.20868 3686 ft 262 kts 150°
2026-05-07 03:03 47.40032 -122.19325 4375 ft 266 kts 151°
2026-05-07 03:03 47.38418 -122.17970 4977 ft 268 kts 151°
2026-05-07 03:03 47.36796 -122.16567 5554 ft 273 kts 144°
2026-05-07 03:04 47.35571 -122.14421 6088 ft 279 kts 115°
2026-05-07 03:04 47.35169 -122.11626 6653 ft 284 kts 86°
2026-05-07 03:04 47.35634 -122.08791 7194 ft 288 kts 64°
2026-05-07 03:04 47.36576 -122.06176 7818 ft 290 kts 58°
2026-05-07 03:05 47.37626 -122.03624 8462 ft 293 kts 56°
2026-05-07 03:05 47.38711 -122.01061 9070 ft 296 kts 55°
2026-05-07 03:05 47.39809 -121.98464 9672 ft 300 kts 55°
2026-05-07 03:05 47.40924 -121.95822 10203 ft 306 kts 54°
2026-05-07 03:06 47.42072 -121.93108 10552 ft 321 kts 54°
2026-05-07 03:06 47.43290 -121.90217 10712 ft 341 kts 54°
2026-05-07 03:06 47.44571 -121.87144 10856 ft 361 kts 55°
2026-05-07 03:06 47.45908 -121.83904 11056 ft 377 kts 55°
2026-05-07 03:07 47.47284 -121.80543 11468 ft 385 kts 55°
2026-05-07 03:07 47.48676 -121.77126 11979 ft 390 kts 55°
2026-05-07 03:07 47.50073 -121.73669 12584 ft 393 kts 56°
2026-05-07 03:07 47.51479 -121.70178 13219 ft 397 kts 55°
2026-05-07 03:08 47.52903 -121.66638 13747 ft 403 kts 55°
2026-05-07 03:08 47.54351 -121.63042 14133 ft 413 kts 55°
2026-05-07 03:08 47.55848 -121.59321 14251 ft 428 kts 55°
2026-05-07 03:08 47.57391 -121.55479 14506 ft 439 kts 56°
2026-05-07 03:09 47.58955 -121.51574 14958 ft 443 kts 56°
2026-05-07 03:09 47.60532 -121.47628 15441 ft 446 kts 56°
2026-05-07 03:09 47.62117 -121.43655 15945 ft 450 kts 56°
2026-05-07 03:09 47.63715 -121.39647 16400 ft 453 kts 56°
2026-05-07 03:10 47.65323 -121.35607 16821 ft 456 kts 56°
2026-05-07 03:10 47.66937 -121.31545 17299 ft 458 kts 56°
2026-05-07 03:10 47.68558 -121.27460 17736 ft 462 kts 56°
2026-05-07 03:10 47.70193 -121.23338 18136 ft 465 kts 56°
2026-05-07 03:11 47.71823 -121.19219 18858 ft 457 kts 56°
2026-05-07 03:11 47.73402 -121.15208 19974 ft 443 kts 55°
2026-05-07 03:11 47.74946 -121.11282 20750 ft 440 kts 55°
2026-05-07 03:11 47.76508 -121.07328 21065 ft 446 kts 55°
2026-05-07 03:12 47.78091 -121.03318 21359 ft 454 kts 55°
2026-05-07 03:12 47.79693 -120.99251 21834 ft 455 kts 55°
2026-05-07 03:12 47.81285 -120.95192 22387 ft 455 kts 56°
2026-05-07 03:12 47.82886 -120.91106 22690 ft 460 kts 55°
2026-05-07 03:13 47.84502 -120.86980 23026 ft 463 kts 55°
2026-05-07 03:13 47.86126 -120.82824 23434 ft 464 kts 55°
2026-05-07 03:13 47.87750 -120.78661 23844 ft 466 kts 55°
2026-05-07 03:13 47.89380 -120.74473 24171 ft 469 kts 55°
2026-05-07 03:14 47.91021 -120.70254 24496 ft 472 kts 55°
2026-05-07 03:14 47.92670 -120.66007 24834 ft 475 kts 55°
2026-05-07 03:14 47.95951 -120.57526 25845 ft 470 kts 55°
2026-05-07 03:15 47.97587 -120.53290 26222 ft 471 kts 55°
2026-05-07 03:15 47.99228 -120.49037 26514 ft 475 kts 55°
2026-05-07 03:15 48.00882 -120.44745 26801 ft 478 kts 55°
2026-05-07 03:15 48.02539 -120.40439 27129 ft 480 kts 55°
2026-05-07 03:16 48.04205 -120.36100 27424 ft 482 kts 55°
2026-05-07 03:16 48.05873 -120.31746 27714 ft 483 kts 55°
2026-05-07 03:16 48.07543 -120.27379 28033 ft 485 kts 54°
2026-05-07 03:16 48.09222 -120.22983 28287 ft 488 kts 55°
2026-05-07 03:17 48.10906 -120.18568 28570 ft 490 kts 55°
2026-05-07 03:17 48.12587 -120.14149 28938 ft 488 kts 55°
2026-05-07 03:17 48.14263 -120.09735 29341 ft 486 kts 54°
2026-05-07 03:17 48.15928 -120.05342 29725 ft 485 kts 54°
2026-05-07 03:18 48.17592 -120.00946 30088 ft 484 kts 54°
2026-05-07 03:18 48.19254 -119.96554 30274 ft 486 kts 54°
2026-05-07 03:18 48.20926 -119.92128 30438 ft 489 kts 54°
2026-05-07 03:18 48.22607 -119.87676 30642 ft 491 kts 54°
2026-05-07 03:19 48.24259 -119.83275 31399 ft 477 kts 54°
2026-05-07 03:19 48.25857 -119.78997 32189 ft 465 kts 53°
2026-05-07 03:19 48.27435 -119.74781 32500 ft 464 kts 53°
2026-05-07 03:20 48.30635 -119.66252 32575 ft 473 kts 53°
2026-05-07 03:20 48.33885 -119.57566 32735 ft 480 kts 52°
2026-05-07 03:20 48.34967 -119.54663 32845 ft 481 kts 52°
2026-05-07 03:21 48.36602 -119.50266 32876 ft 483 kts 52°
2026-05-07 03:21 48.39868 -119.41440 32861 ft 482 kts 52°
2026-05-07 03:22 48.43628 -119.31242 32871 ft 478 kts 52°
2026-05-07 03:22 48.46837 -119.22520 32879 ft 474 kts 53°
2026-05-07 03:23 48.49504 -119.15251 32874 ft 472 kts 52°
2026-05-07 03:23 48.52677 -119.06586 32870 ft 474 kts 52°
2026-05-07 03:24 48.55866 -118.97858 32887 ft 480 kts 53°
2026-05-07 03:24 48.59076 -118.89021 32879 ft 479 kts 53°
2026-05-07 03:25 48.62286 -118.80153 32871 ft 484 kts 53°
2026-05-07 03:25 48.65531 -118.71169 32859 ft 488 kts 53°
2026-05-07 03:26 48.68778 -118.62140 32863 ft 489 kts 53°
2026-05-07 03:26 48.72024 -118.53071 32860 ft 489 kts 53°
2026-05-07 03:27 48.75264 -118.44001 32863 ft 489 kts 53°
2026-05-07 03:27 48.78483 -118.34950 32859 ft 487 kts 53°
2026-05-07 03:28 48.81689 -118.25908 32858 ft 486 kts 53°